[Date Prev][Date Next][Thread Prev][Thread Next] - [Date Index][Thread Index][Author Index]

2 Line ISS Keps 12-16



ISS
1 25544U 98067A   01350.52100694  .00002654  00000-0  38990-4 0  8490
2 25544  51.6400 251.2244 0002898  42.4299 312.7240 15.59620535175525


----
Via the sarex mailing list at AMSAT.ORG courtesy of AMSAT-NA.
To unsubscribe, send "unsubscribe sarex" to Majordomo@amsat.org



AMSAT Top AMSAT Home